SCP
0 0 0 -0 0 0 0 0 0 0 0 0 0 0 0 0 0 0 0 0 0 0
0 0 0 0 0 0 0 0 0 0 0 0 0 0 0 0 0 0 0 0 0 0
-0 0 0 0 0 0 0 0 0 0 0 0 0 0 0 0 0 0 0 0 0 0
0 0 0 0 0 0 0 0 0 0 0 0 0 0 0 0 0 0 0 0 0 0
-0 0 0 0 0 -0 0 0 0 0 0 0 0 0 0 0 0 0 0 0 0 0
0 0 0 0 0 -0 -0 -0 -0 0 0 0 0 0 0 0 0 0 0 0 0 0
0 0 0 0 -0 0 0 0 0 0 0 0 0 0 0 0 0 0 0 0 0 0
0 0 0 0 0 -0 0 0 -0 0 0 0 0 0 0 0 0 0 0 0 0 0
0 0 0 -0 0 0 0 -0 -0 -0 -0 0 0 0 0 0 0 0 0 0 0 0
0 0 0 0 0 -0 -0 -0 -0 -0 -0 -0 -0 -0 -0 0 0 0 0 0 0 0
0 0 0 0 0 0 0 -0 -0 -0 0 0 0 -0 -0 -0 0 0 0 0 0 0
0 0 0 0 0 0 0 0 0 -0 -0 -0 -0 -0 0 0 0 0 0 0 0 0
0 0 0 0 0 0 0 0 0 0 0 0 -0 -0 -0 0 0 0 0 0 0 0
0 0 -0 0 0 0 0 0 0 0 0 0 0 0 0 0 0 0 0 0 0 0
Wind_Speed_500mb
7 4 9 10 9 7 15 22 15 12 19 32 38 31 31 41 37 32 33 31 33 33
9 7 5 10 15 12 10 30 19 15 12 27 35 42 39 37 39 37 32 29 29 33
11 9 7 6 11 17 15 14 26 19 10 19 34 42 41 42 43 41 33 32 40 38
14 12 8 4 8 12 18 20 21 23 18 16 17 29 43 41 35 32 27 10 6 7
15 12 8 4 2 9 15 21 24 22 20 17 17 19 16 9 14 22 18 19 16 16
16 15 14 10 4 4 14 19 21 27 24 21 22 17 14 12 17 20 16 19 23 19
19 20 21 18 14 10 13 15 21 25 26 23 20 18 17 14 10 11 11 16 12 10
20 22 22 25 26 23 20 18 18 20 25 21 20 15 14 12 11 11 12 14 11 10
19 20 25 27 28 28 27 26 23 23 23 22 19 14 12 11 17 13 7 9 6 7
15 18 27 25 25 28 29 30 26 24 22 23 19 20 19 18 14 13 10 7 6 4
10 13 18 22 23 21 23 25 25 25 23 22 20 17 12 12 11 12 11 7 3 3
8 10 12 13 14 18 20 18 19 21 20 18 20 15 11 9 12 10 7 4 6 7
4 9 12 10 10 13 14 14 13 16 15 15 18 14 8 12 12 12 9 8 7 8
4 7 11 13 13 11 10 12 14 16 16 16 13 14 11 10 12 11 11 11 10 9
Wind_Direction_500mb
13 331 241 249 232 199 173 196 195 235 222 211 212 216 216 217 220 226 228 232 244 257
24 328 258 219 220 228 195 191 189 216 227 212 207 211 208 209 211 218 222 237 257 262
28 13 349 270 214 219 211 197 184 188 247 203 211 225 220 222 221 219 227 255 267 251
37 32 31 323 265 234 209 195 191 178 190 139 156 199 216 233 226 233 232 212 306 217
39 39 48 7 250 214 212 200 183 186 182 164 138 142 139 151 190 186 200 218 229 245
52 53 52 51 42 207 194 189 186 180 179 164 165 166 185 205 231 233 228 227 248 240
57 61 61 63 69 80 133 153 165 174 175 170 171 171 187 196 201 201 218 207 191 214
64 69 70 74 77 78 92 113 138 150 159 161 164 181 188 194 199 185 191 162 169 163
59 75 82 84 88 94 98 103 110 126 138 145 146 161 175 183 169 165 170 152 198 220
73 76 91 84 90 102 112 108 115 122 126 130 136 141 137 136 142 149 167 179 187 217
99 86 95 103 110 112 116 124 127 127 127 134 141 141 147 139 151 169 161 148 176 220
118 126 116 124 123 127 137 148 146 147 146 142 139 141 160 154 173 190 199 241 257 237
122 140 152 155 145 150 146 157 154 163 165 175 164 175 186 201 207 216 222 249 261 260
185 181 170 178 183 184 176 165 158 159 164 168 182 206 236 228 219 238 243 235 239 249
Wind_Speed_850mb
7 4 9 10 9 7 15 22 15 12 19 32 38 31 31 41 37 32 33 31 33 33
9 7 5 10 15 12 10 30 19 15 12 27 35 42 39 37 39 37 32 29 29 33
11 9 7 6 11 17 15 14 26 19 10 19 34 42 41 42 43 41 33 32 40 38
14 12 8 4 8 12 18 20 21 23 18 16 17 29 43 41 35 32 27 10 6 7
15 12 8 4 2 9 15 21 24 22 20 17 17 19 16 9 14 22 18 19 16 16
16 15 14 10 4 4 14 19 21 27 24 21 22 17 14 12 17 20 16 19 23 19
19 20 21 18 14 10 13 15 21 25 26 23 20 18 17 14 10 11 11 16 12 10
20 22 22 25 26 23 20 18 18 20 25 21 20 15 14 12 11 11 12 14 11 10
19 20 25 27 28 28 27 26 23 23 23 22 19 14 12 11 17 13 7 9 6 7
15 18 27 25 25 28 29 30 26 24 22 23 19 20 19 18 14 13 10 7 6 4
10 13 18 22 23 21 23 25 25 25 23 22 20 17 12 12 11 12 11 7 3 3
8 10 12 13 14 18 20 18 19 21 20 18 20 15 11 9 12 10 7 4 6 7
4 9 12 10 10 13 14 14 13 16 15 15 18 14 8 12 12 12 9 8 7 8
4 7 11 13 13 11 10 12 14 16 16 16 13 14 11 10 12 11 11 11 10 9
Wind_Direction_850mb
13 331 241 249 232 199 173 196 195 235 222 211 212 216 216 217 220 226 228 232 244 257
24 328 258 219 220 228 195 191 189 216 227 212 207 211 208 209 211 218 222 237 257 262
28 13 349 270 214 219 211 197 184 188 247 203 211 225 220 222 221 219 227 255 267 251
37 32 31 323 265 234 209 195 191 178 190 139 156 199 216 233 226 233 232 212 306 217
39 39 48 7 250 214 212 200 183 186 182 164 138 142 139 151 190 186 200 218 229 245
52 53 52 51 42 207 194 189 186 180 179 164 165 166 185 205 231 233 228 227 248 240
57 61 61 63 69 80 133 153 165 174 175 170 171 171 187 196 201 201 218 207 191 214
64 69 70 74 77 78 92 113 138 150 159 161 164 181 188 194 199 185 191 162 169 163
59 75 82 84 88 94 98 103 110 126 138 145 146 161 175 183 169 165 170 152 198 220
73 76 91 84 90 102 112 108 115 122 126 130 136 141 137 136 142 149 167 179 187 217
99 86 95 103 110 112 116 124 127 127 127 134 141 141 147 139 151 169 161 148 176 220
118 126 116 124 123 127 137 148 146 147 146 142 139 141 160 154 173 190 199 241 257 237
122 140 152 155 145 150 146 157 154 163 165 175 164 175 186 201 207 216 222 249 261 260
185 181 170 178 183 184 176 165 158 159 164 168 182 206 236 228 219 238 243 235 239 249